Location: ???????
(55.4362°N, 38.1183°E)
Time: 15:02:03
(UTC+00:00)

Oscar 11 - Pass Details

Date: 06 December 2021
Orbit: 611 x 625 km, 97.6° (Epoch: 25 January)

Event Time Altitude Azimuth Distance (km) Brightness Sun altitude
Rises 02:13:27 0° 21° (NNE) 2,923 10.8 -27.5°
Reaches altitude 10° 02:15:54 10° 32° (NNE) 2,009 10.0 -27.2°
Maximum altitude 02:19:44 29° 93° (E) 1,143 9.0 -26.6°
Drops below altitude 10° 02:23:32 10° 155° (SSE) 1,987 10.0 -26.1°
Sets 02:25:57 0° 166° (SSE) 2,886 10.7 -25.7°
